Location: ?????
(31.8092°N, 35.2590°E)
Time: 15:55:57
(UTC+00:00)

Cosmos 1302 Rocket - Pass Details

Date: 20 June 2021
Orbit: 757 x 775 km, 74.0° (Epoch: 03 August)

Event Time Altitude Azimuth Distance (km) Brightness Sun altitude
Exits shadow 19:11:00 28° 215° (SW) 1,407 5.2 -24.2°
Maximum altitude 19:13:42 63° 288° (WNW) 856 4.3 -24.5°
Drops below altitude 10° 19:18:54 10° 9° (N) 2,308 7.0 -25.2°
Sets 19:21:18 0° 13° (NNE) 3,235 7.8 -25.5°
